Miscellaneous Local Product
Issued by NWS North Platte, NE

Home | Current Version | Previous Version | Text Only | Print | Product List | Glossary On
Versions: 1 2 3 4 5 6 7 8 9 10 11 12 13 14 15 16 17 18 19 20 21 22 23 24 25 26 27 28 29 30 31 32 33 34 35 36 37 38 39 40 41 42 43 44 45 46 47 48 49 50
000
AXUS43 KLBF 280110
MISLBF


WESTERN AND NORTH CENTRAL NEBRASKA HOURLY WEATHER ROUNDUP
NATIONAL WEATHER SERVICE NORTH PLATTE NE
800 PM CDT MON APR 27 2015

***STATIONS NOT REPORTING VARIABLES SUCH AS SKY/WEATHER OR
PRESSURE ARE PROVIDED BY THE NEBRASKA DEPARTMENT OF
ROADS...RAWS...AND APRS NETWORKS...AND ARE NOT UNDER
NATIONAL WEATHER SERVICE QUALITY CONTROL***

...OBSERVATIONS IN AND NEAR THE EASTERN PANHANDLE OF NEBRASKA...

CITY           SKY/WX    TMP DP  RH WIND       PRES   REMARKS
PINE RIDGE     PTCLDY    52  40  63 N12       30.28R
CHADRON        MOCLDY    50  43  77 N9        30.29S
ALLIANCE       CLOUDY    52  43  71 N17       30.25R
SIDNEY         MOCLDY    55  38  52 N6        30.25R
WHITECLAY        N/A     49  39  69 W7          N/A
CRESCENT LAKE    N/A     56  38  52 N13         N/A
$$

...OBSERVATIONS IN NORTH CENTRAL NEBRASKA...

CITY           SKY/WX    TMP DP  RH WIND       PRES   REMARKS
VALENTINE      PTCLDY    59  40  49 N18G28    30.21R
THEDFORD       MOCLDY    64  34  32 N10       30.20R
AINSWORTH      PTCLDY    62  41  45 N21G26    30.20R
O`NEILL        PTCLDY    61  34  35 NE7       30.17S
ORD            MOCLDY    60  30  32 N8        30.15R
BROKEN BOW     MOCLDY    62  31  31 NE8       30.16R
BROWNLEE         N/A     63  34  33 E16         N/A
SPRINGVIEW       N/A     64  42  45 NW15G22     N/A
BREWSTER         N/A     66  33  29 E9          N/A
ROSE             N/A     65  36  33 N7          N/A
NEWPORT          N/A     63  36  35 NE5         N/A
SARGENT          N/A     62  34  35 CALM        N/A
COMSTOCK         N/A     64  34  32 NE8         N/A
EWING            N/A     62  33  34 CALM        N/A
$$

...OBSERVATIONS IN SOUTHWEST NEBRASKA AND FAR NORTHEAST COLORADO...

CITY           SKY/WX    TMP DP  RH WIND       PRES   REMARKS
WRAY           FAIR      57  32  38 N7        30.21F
HOLYOKE        FAIR      59  36  41 N9        30.22R
IMPERIAL       MOCLDY    60  31  33 NE10      30.19S
OGALLALA       MOCLDY    60  35  38 NE5       30.20R
NORTH PLATTE   CLOUDY    62  33  33 NE8       30.18R
MCCOOK         MOCLDY    62  35  36 NE9       30.16R
LEXINGTON      CLOUDY    59  37  45 NE7       30.16R
PAXTON           N/A     64  34  33 N8          N/A
SUTHERLAND       N/A     60  23  24 NE7         N/A
BRADY            N/A     62  34  35 CALM        N/A
GOTHENBURG       N/A     64  30  28 NE5         N/A
CALLAWAY         N/A     63  36  36 NE9         N/A
$$

...NORTH PLATTE AREA...

CITY           SKY/WX    TMP DP  RH WIND       PRES   REMARKS
AIRPORT        CLOUDY    62  33  33 NE8       30.18R
$$

...SOME WEATHER OBSERVATIONS FROM AROUND THE REGION...

CITY           SKY/WX    TMP DP  RH WIND       PRES   REMARKS
DENVER         CLOUDY    45  39  79 N3        30.28S
LARAMIE        CLOUDY    39  33  79 E13       30.28R WCI  31
CHEYENNE       CLOUDY    43  33  68 NE6       30.29R
SCOTTSBLUFF    CLOUDY    53  42  66 N14       30.27R
RAPID CITY     LGT RAIN  47  40  76 N8        30.31R
PIERRE         LGT RAIN  53  42  66 NW21      30.24R
WINNER         FAIR      63  38  39 N22G28    30.21R
SIOUX FALLS    MOCLDY    61  28  28 N3        30.15S
OMAHA          MOCLDY    65  31  28 NE8       30.11R
GRAND ISLAND   MOCLDY    60  31  33 NE7       30.15R
KANSAS CITY    MOCLDY    60  36  40 NE8       30.07R
WICHITA        CLOUDY    60  35  39 NE13      30.06R
HAYS           PTCLDY    57  32  38 E10       30.14R
LIBERAL        CLOUDY    46  39  76 CALM      30.12F
GOODLAND       MOCLDY    55  33  43 NE12      30.19R
$$



USA.gov is the U.S. government's official web portal to all federal, state and local government web resources and services.